TimeEST,TemperatureF,Dew PointF,Humidity,Sea Level PressureIn,VisibilityMPH,Wind Direction,Wind SpeedMPH,Gust SpeedMPH,PrecipitationIn,Events,Conditions,WindDirDegrees,DateUTC
12:53 AM,10.0,-4.0,53,30.14,10.0,NE,10.4,-,N/A,,Partly Cloudy,50,2014-01-21 05:53:00
1:53 AM,9.0,-5.1,53,30.14,10.0,NE,10.4,-,N/A,,Overcast,40,2014-01-21 06:53:00
2:53 AM,8.1,-5.1,55,30.15,10.0,ENE,8.1,-,N/A,,Clear,60,2014-01-21 07:53:00
3:53 AM,7.0,-5.1,58,30.17,10.0,NE,5.8,-,N/A,,Partly Cloudy,50,2014-01-21 08:53:00
4:53 AM,7.0,-5.1,58,30.18,10.0,NE,5.8,-,N/A,,Clear,40,2014-01-21 09:53:00
5:53 AM,6.1,-5.1,60,30.20,10.0,NE,3.5,-,N/A,,Scattered Clouds,50,2014-01-21 10:53:00
6:53 AM,5.0,-5.1,63,30.22,10.0,North,3.5,-,N/A,,Scattered Clouds,360,2014-01-21 11:53:00
7:53 AM,3.9,-5.1,66,30.24,10.0,North,4.6,-,N/A,,Partly Cloudy,360,2014-01-21 12:53:00
8:53 AM,3.9,-5.1,66,30.25,10.0,NNE,5.8,-,N/A,,Partly Cloudy,30,2014-01-21 13:53:00
9:53 AM,6.1,-5.1,60,30.27,10.0,NE,10.4,-,N/A,,Partly Cloudy,40,2014-01-21 14:53:00
10:53 AM,8.1,-6.0,53,30.28,10.0,NNE,10.4,-,N/A,,Scattered Clouds,30,2014-01-21 15:53:00
11:53 AM,9.0,-6.0,51,30.28,10.0,ENE,5.8,-,N/A,,Mostly Cloudy,60,2014-01-21 16:53:00
12:53 PM,10.9,-5.1,49,30.25,10.0,NNE,6.9,-,N/A,,Scattered Clouds,20,2014-01-21 17:53:00
1:53 PM,12.0,-5.1,46,30.24,10.0,NNE,4.6,-,N/A,,Scattered Clouds,20,2014-01-21 18:53:00
2:53 PM,10.9,-5.1,49,30.23,10.0,NNE,10.4,-,N/A,,Mostly Cloudy,20,2014-01-21 19:53:00
3:53 PM,12.0,-5.1,46,30.23,10.0,North,6.9,-,N/A,,Mostly Cloudy,10,2014-01-21 20:53:00
4:53 PM,12.0,-4.0,49,30.24,10.0,NNE,3.5,-,N/A,,Mostly Cloudy,20,2014-01-21 21:53:00
5:53 PM,12.0,-2.9,51,30.25,10.0,NNE,3.5,-,N/A,,Overcast,30,2014-01-21 22:53:00
6:53 PM,10.9,-2.9,54,30.24,10.0,Calm,Calm,-,N/A,,Overcast,0,2014-01-21 23:53:00
7:53 PM,10.0,-2.0,58,30.23,10.0,SE,3.5,-,N/A,,Overcast,130,2014-01-22 00:53:00
8:53 PM,9.0,-4.0,56,30.23,10.0,SE,4.6,-,N/A,,Overcast,140,2014-01-22 01:53:00
9:53 PM,8.1,-2.0,64,30.23,10.0,Calm,Calm,-,N/A,,Overcast,0,2014-01-22 02:53:00
10:53 PM,7.0,-4.0,61,30.22,10.0,ESE,4.6,-,N/A,,Overcast,110,2014-01-22 03:53:00
11:53 PM,6.1,-4.0,63,30.20,10.0,ESE,3.5,-,N/A,,Overcast,120,2014-01-22 04:53:00